Brady, TX

4:12 PM CST on February 21, 2018 (GMT -0600)
Curtis

Weather History for KBBD - March, 2013

Change the Weather History Date:

Friday, March 29, 2013

  Actual Average (KJCT) Record (KJCT)
Temperature  
Mean Temperature 65 °F -  
Max Temperature 77 °F 71 °F 90 °F (2015)
Min Temperature 53 °F 46 °F 30 °F (2003)
Growing Degree Days 15 (Base 50)    
Moisture  
Dew Point 55 °F    
Average Humidity 68    
Maximum Humidity 100    
Minimum Humidity 44    
Precipitation  
Precipitation 0.00 in - - ()
Sea Level Pressure  
Sea Level Pressure 30.09 in    
Wind  
Wind Speed 10 mph (SSE)    
Max Wind Speed 20 mph    
Max Gust Speed 26 mph    
Visibility 10 miles    
Events      
Averages and records for this station are not official NWS values.
T = Trace of Precipitation, MM = Missing Value Source: NWS Daily Summary

Daily Weather History Graph

Daily Weather History Graph

Search for Another Location

Airport or City:

Trip Planner

Search our weather history database for the weather conditions in past years. The results will help you decide how hot, cold, wet, or windy it might be!

Date:

Astronomy

Mar. 29, 2013 Rise Set
Actual Time 7:29 AM CDT 7:54 PM CDT
Civil Twilight 7:05 AM CDT 8:19 PM CDT
Nautical Twilight 6:36 AM CDT 8:47 PM CDT
Astronomical Twilight 6:07 AM CDT 9:16 PM CDT
Moon 10:43 PM CDT (3/29) 8:51 AM CDT (3/29)
Length of Visible Light 13h 14m
Length of Day
12h 25m
Waning Gibbous, 93% of the Moon is Illuminated
Mar 29
Waning Gibbous
Apr 2
Last Quarter
Apr 10
New
Apr 18
First Quarter
Apr 25
Full

Hourly Weather History & Observations

Time (CDT) Temp. Dew Point Humidity Pressure Visibility Wind Dir Wind Speed Gust Speed Precip Events Conditions
12:15 AM 60.8 °F 57.2 °F 88% 30.13 in 10.0 mi SSE 6.9 mph - N/A   Overcast
12:35 AM 60.8 °F 57.2 °F 88% 30.14 in 10.0 mi SSE 8.1 mph - N/A   Overcast
12:55 AM 60.8 °F 55.4 °F 82% 30.13 in 10.0 mi SSE 9.2 mph - N/A   Mostly Cloudy
1:15 AM 60.8 °F 55.4 °F 82% 30.13 in 10.0 mi South 10.4 mph - N/A   Mostly Cloudy
1:35 AM 62.6 °F 55.4 °F 77% 30.13 in 10.0 mi South 12.7 mph - N/A   Overcast
1:55 AM 62.6 °F 55.4 °F 77% 30.12 in 10.0 mi South 10.4 mph - N/A   Overcast
2:15 AM 62.6 °F 55.4 °F 77% 30.12 in 10.0 mi South 10.4 mph - N/A   Overcast
2:35 AM 62.6 °F 55.4 °F 77% 30.12 in 10.0 mi South 8.1 mph - N/A   Overcast
2:55 AM 62.6 °F 55.4 °F 77% 30.12 in 10.0 mi South 10.4 mph - N/A   Overcast
3:15 AM 62.6 °F 55.4 °F 77% 30.11 in 10.0 mi South 13.8 mph - N/A   Overcast
3:35 AM 62.6 °F 55.4 °F 77% 30.11 in 10.0 mi South 8.1 mph - N/A   Overcast
3:55 AM 62.6 °F 55.4 °F 77% 30.10 in 10.0 mi South 11.5 mph - N/A   Overcast
4:15 AM 62.6 °F 55.4 °F 77% 30.10 in 10.0 mi SSE 8.1 mph - N/A   Overcast
4:35 AM 60.8 °F 55.4 °F 82% 30.10 in 10.0 mi SSE 9.2 mph - N/A   Mostly Cloudy
4:55 AM 60.8 °F 55.4 °F 82% 30.10 in 10.0 mi SSE 8.1 mph - N/A   Clear
5:15 AM 59.0 °F 55.4 °F 88% 30.10 in 10.0 mi SSE 9.2 mph - N/A   Clear
5:35 AM 57.2 °F 55.4 °F 94% 30.10 in 10.0 mi SSE 6.9 mph - N/A   Clear
5:55 AM 57.2 °F 55.4 °F 94% 30.10 in 10.0 mi SSE 8.1 mph - N/A   Clear
6:15 AM 57.2 °F 55.4 °F 94% 30.10 in 10.0 mi SSE 8.1 mph - N/A   Clear
6:35 AM 55.4 °F 55.4 °F 100% 30.10 in 10.0 mi SSE 6.9 mph - N/A   Clear
6:55 AM 55.4 °F 55.4 °F 100% 30.11 in 10.0 mi SSE 6.9 mph - N/A   Clear
7:15 AM 55.4 °F 53.6 °F 94% 30.11 in 10.0 mi SE 5.8 mph - N/A   Clear
7:35 AM 53.6 °F 53.6 °F 100% 30.12 in 10.0 mi SE 6.9 mph - N/A   Clear
7:55 AM 55.4 °F 53.6 °F 94% 30.12 in 10.0 mi SE 8.1 mph - N/A   Clear
8:15 AM 55.4 °F 55.4 °F 100% 30.11 in 10.0 mi SE 6.9 mph - N/A   Clear
8:35 AM 55.4 °F 55.4 °F 100% 30.12 in 10.0 mi SSE 9.2 mph - N/A   Clear
8:55 AM 57.2 °F 55.4 °F 94% 30.13 in 10.0 mi SSE 12.7 mph - N/A   Clear
9:15 AM 59.0 °F 55.4 °F 88% 30.13 in 10.0 mi SSE 9.2 mph - N/A   Partly Cloudy
9:35 AM 60.8 °F 55.4 °F 82% 30.14 in 10.0 mi South 12.7 mph - N/A   Scattered Clouds
9:55 AM 62.6 °F 53.6 °F 72% 30.14 in 10.0 mi South 13.8 mph - N/A   Mostly Cloudy
10:15 AM 62.6 °F 53.6 °F 72% 30.15 in 10.0 mi South 11.5 mph - N/A   Mostly Cloudy
10:35 AM 66.2 °F 53.6 °F 64% 30.14 in 10.0 mi South 17.3 mph - N/A   Scattered Clouds
10:55 AM 64.4 °F 53.6 °F 68% 30.14 in 10.0 mi South 15.0 mph - N/A   Mostly Cloudy
11:15 AM 66.2 °F 53.6 °F 64% 30.14 in 10.0 mi South 13.8 mph - N/A   Mostly Cloudy
11:55 AM 69.8 °F 53.6 °F 56% 30.13 in 10.0 mi South 15.0 mph - N/A   Mostly Cloudy
12:15 PM 69.8 °F 53.6 °F 56% 30.12 in 10.0 mi South 19.6 mph - N/A   Mostly Cloudy
12:35 PM 71.6 °F 55.4 °F 57% 30.13 in 10.0 mi South 17.3 mph - N/A   Mostly Cloudy
12:55 PM 71.6 °F 53.6 °F 53% 30.12 in 10.0 mi South 11.5 mph - N/A   Overcast
1:15 PM 73.4 °F 55.4 °F 53% 30.12 in 10.0 mi South 11.5 mph - N/A   Overcast
1:35 PM 73.4 °F 53.6 °F 50% 30.10 in 10.0 mi South 16.1 mph - N/A   Mostly Cloudy
1:55 PM 73.4 °F 53.6 °F 50% 30.10 in 10.0 mi SSE 12.7 mph - N/A   Mostly Cloudy
2:15 PM 75.2 °F 53.6 °F 47% 30.09 in 10.0 mi South 13.8 mph - N/A   Mostly Cloudy
2:35 PM 75.2 °F 53.6 °F 47% 30.08 in 10.0 mi South 17.3 mph - N/A   Mostly Cloudy
2:55 PM 75.2 °F 55.4 °F 50% 30.07 in 10.0 mi South 18.4 mph 26.5 mph N/A   Overcast
3:15 PM 73.4 °F 53.6 °F 50% 30.07 in 10.0 mi SSE 11.5 mph - N/A   Overcast
3:35 PM 73.4 °F 55.4 °F 53% 30.06 in 10.0 mi South 16.1 mph - N/A   Mostly Cloudy
3:55 PM 73.4 °F 53.6 °F 50% 30.06 in 10.0 mi SSE 15.0 mph - N/A   Mostly Cloudy
4:15 PM 73.4 °F 53.6 °F 50% 30.05 in 10.0 mi South 17.3 mph - N/A   Overcast
4:35 PM 75.2 °F 53.6 °F 47% 30.05 in 10.0 mi South 15.0 mph - N/A   Mostly Cloudy
4:55 PM 75.2 °F 53.6 °F 47% 30.05 in 10.0 mi South 13.8 mph - N/A   Partly Cloudy
5:15 PM 77.0 °F 53.6 °F 44% 30.04 in 10.0 mi SSE 16.1 mph - N/A   Mostly Cloudy
5:35 PM 75.2 °F 53.6 °F 47% 30.04 in 10.0 mi South 13.8 mph - N/A   Scattered Clouds
5:55 PM 75.2 °F 53.6 °F 47% 30.04 in 10.0 mi SSE 11.5 mph - N/A   Scattered Clouds
6:15 PM 73.4 °F 53.6 °F 50% 30.04 in 10.0 mi South 13.8 mph - N/A   Partly Cloudy
6:35 PM 73.4 °F 55.4 °F 53% 30.04 in 10.0 mi South 8.1 mph - N/A   Partly Cloudy
6:55 PM 73.4 °F 53.6 °F 50% 30.04 in 10.0 mi South 10.4 mph - N/A   Mostly Cloudy
7:15 PM 73.4 °F 53.6 °F 50% 30.05 in 10.0 mi South 12.7 mph - N/A   Mostly Cloudy
7:35 PM 73.4 °F 53.6 °F 50% 30.06 in 10.0 mi South 9.2 mph - N/A   Mostly Cloudy
7:55 PM 71.6 °F 55.4 °F 57% 30.06 in 10.0 mi South 8.1 mph - N/A   Mostly Cloudy
8:15 PM 69.8 °F 55.4 °F 60% 30.07 in 10.0 mi SSE 4.6 mph - N/A   Mostly Cloudy
8:35 PM 69.8 °F 55.4 °F 60% 30.07 in 10.0 mi SSE 3.5 mph - N/A   Mostly Cloudy
8:55 PM 69.8 °F 53.6 °F 56% 30.07 in 10.0 mi SE 4.6 mph - N/A   Mostly Cloudy
9:15 PM 69.8 °F 55.4 °F 60% 30.07 in 10.0 mi SE 8.1 mph - N/A   Scattered Clouds
9:35 PM 69.8 °F 55.4 °F 60% 30.08 in 10.0 mi SSE 5.8 mph - N/A   Clear
9:55 PM 69.8 °F 55.4 °F 60% 30.08 in 10.0 mi SSE 5.8 mph - N/A   Clear
10:15 PM 69.8 °F 55.4 °F 60% 30.04 in 10.0 mi SSE 16.1 mph - N/A   Partly Cloudy
10:35 PM 68.0 °F 55.4 °F 64% 30.04 in 10.0 mi SE 15.0 mph - N/A   Clear
10:55 PM 68.0 °F 55.4 °F 64% 30.05 in 10.0 mi SSE 15.0 mph - N/A   Clear
11:15 PM 68.0 °F 55.4 °F 64% 30.06 in 10.0 mi SSE 11.5 mph - N/A   Clear
11:35 PM 66.2 °F 53.6 °F 64% 30.05 in 10.0 mi SSE 10.4 mph - N/A   Clear
11:55 PM 66.2 °F 53.6 °F 64% 30.06 in 10.0 mi SSE 9.2 mph - N/A   Clear